Wind_Speed
9 9 8 7 5 3 2 3 3 4 4 3 3 2 2 2 3 2 2 1 2 2 2 2 3 3 4 4 5 6 6 6 6 6 6 7 8 7 7 7 7 6 4
10 9 8 8 6 4 3 4 4 4 4 3 2 2 2 2 2 2 2 1 1 1 2 3 3 4 5 5 5 6 5 5 5 5 6 7 7 7 7 7 7 6 4
9 9 9 8 8 7 6 5 5 5 4 3 2 2 1 1 1 1 1 2 1 1 2 2 3 4 5 6 6 6 5 4 5 5 5 6 6 7 7 5 5 4 4
9 9 10 10 9 8 7 7 6 5 4 3 3 2 1 0 1 1 2 1 0 0 1 2 2 3 4 5 5 5 5 5 5 5 5 5 5 6 6 5 5 5 4
9 10 10 10 9 8 8 7 6 6 5 5 4 3 2 1 1 2 2 1 0 1 1 1 2 3 5 5 5 5 5 6 6 5 5 5 5 5 5 5 5 5 5
9 10 10 10 9 9 9 8 8 7 7 6 6 5 4 3 2 2 2 2 1 1 1 1 3 3 4 6 6 6 6 6 5 6 5 4 4 4 4 5 5 5 4
9 9 10 10 9 10 9 9 9 8 8 7 7 6 5 4 3 3 3 2 2 1 1 1 2 3 5 6 6 6 7 6 5 5 4 4 4 4 5 4 4 5 4
9 10 10 10 10 10 10 10 10 9 9 8 8 7 5 4 3 2 2 2 1 1 1 1 2 3 5 6 6 7 7 7 6 6 4 4 5 4 4 5 5 5 4
10 10 10 11 10 10 10 10 10 9 8 8 8 7 6 4 2 2 2 2 1 1 2 2 2 3 5 6 6 7 7 7 7 6 5 5 5 5 5 5 5 5 5
10 10 10 10 10 10 10 10 9 9 8 8 7 8 7 6 4 3 2 2 2 1 2 2 2 3 4 5 5 5 6 6 5 5 5 5 5 4 4 4 4 3 3
11 10 10 10 10 10 10 9 9 8 8 8 7 8 8 7 6 4 3 3 2 1 1 2 3 4 4 4 5 5 5 5 5 5 5 4 4 4 4 4 4 4 4
11 10 10 10 10 10 10 10 9 8 8 8 8 8 8 7 6 5 4 3 2 1 2 4 5 5 4 4 5 5 5 5 4 4 4 4 4 4 4 4 4 4 5
11 11 10 10 11 10 10 10 9 8 8 8 8 7 7 7 6 6 4 3 3 2 3 5 5 5 5 4 4 5 6 5 5 4 4 4 4 3 3 2 3 4 4
10 10 10 10 10 10 9 8 9 9 9 8 8 7 7 7 7 6 6 5 4 4 4 4 4 4 5 4 4 4 5 5 5 5 5 4 4 3 3 3 3 4 4
10 10 10 10 10 10 8 8 8 8 8 8 8 7 7 7 7 6 6 5 4 4 4 4 3 3 2 2 2 3 3 4 5 5 5 4 4 4 3 3 4 4 4
10 10 9 9 9 9 9 8 8 7 7 7 7 6 7 6 6 6 5 5 4 3 3 3 3 2 1 1 1 2 3 4 5 5 5 5 4 4 4 4 4 4 4
9 9 8 9 9 9 9 8 8 7 6 6 6 5 5 6 5 5 5 4 4 3 2 2 1 1 1 1 2 3 4 5 6 5 5 5 4 4 4 4 5 5 5
9 8 7 8 9 9 8 8 7 7 6 6 5 5 5 5 5 4 4 4 3 2 1 1 1 1 1 2 3 3 5 5 5 6 5 5 5 5 5 5 6 6 6
8 8 7 7 8 7 7 7 8 7 6 5 4 5 5 5 5 4 4 4 4 3 2 2 1 1 2 2 2 3 3 4 4 4 5 5 6 6 6 7 7 7 7
8 8 7 7 7 7 7 7 7 7 6 5 4 4 4 5 5 5 4 3 3 3 3 3 3 2 2 3 3 3 3 3 4 4 5 6 6 7 7 8 7 8 8
7 7 7 6 6 6 6 7 7 6 6 5 5 4 4 4 5 5 4 3 3 3 3 3 2 3 3 3 3 3 3 4 4 5 6 6 7 7 8 8 8 9 9
7 6 6 6 5 5 6 6 6 6 5 5 4 4 5 5 4 4 4 4 4 4 4 4 4 4 4 5 5 5 5 5 6 7 7 8 8 9 9 9 9 10 11
6 6 6 5 5 5 5 6 6 6 6 6 6 6 5 5 4 4 5 5 5 6 5 5 5 5 6 6 6 6 6 6 6 7 8 8 9 10 10 11 12 12 12
6 6 5 5 5 5 5 5 6 6 6 6 6 6 6 6 5 5 6 5 6 7 6 6 6 6 6 6 6 7 7 7 8 8 9 10 10 11 12 12 13 13 13
6 6 6 6 6 6 6 6 6 7 7 7 7 7 7 7 6 6 7 7 8 8 8 7 8 8 7 7 7 8 8 8 9 10 11 12 12 12 13 14 15 15 15
6 7 7 7 7 7 7 7 7 8 9 9 8 8 9 8 8 8 8 9 10 10 10 10 10 10 9 9 8 9 10 10 11 12 13 14 14 14 14 15 16 16 17
Wind_Direction
33 33 31 26 23 47 80 102 99 99 103 105 96 91 90 73 77 85 108 140 173 188 193 210 218 221 216 202 210 213 215 221 223 229 236 236 234 232 235 241 241 249 245
35 35 36 30 33 51 77 98 100 95 94 91 93 92 85 77 82 85 102 134 171 208 227 239 237 227 225 209 210 212 212 217 226 229 236 234 230 229 238 243 241 242 248
38 41 40 42 50 65 78 86 86 83 81 78 82 83 89 92 90 79 93 120 156 246 245 241 239 226 214 204 206 205 206 217 219 217 228 234 230 231 237 242 225 231 244
39 44 44 51 58 69 77 78 77 75 71 67 70 77 81 70 97 84 97 118 127 212 222 231 225 210 204 203 201 203 208 211 207 202 218 224 227 226 233 231 226 231 244
41 48 52 55 61 66 71 70 68 69 67 62 64 66 56 55 114 94 80 81 68 201 206 196 190 200 200 201 199 201 203 203 205 207 213 212 215 216 228 232 233 237 252
47 51 55 58 61 64 64 63 66 67 64 60 57 53 54 67 87 78 73 61 62 136 128 171 160 178 190 196 195 195 201 201 204 203 208 210 215 213 223 231 234 241 255
49 53 58 56 56 58 60 63 64 63 61 60 58 60 64 76 80 73 74 49 56 98 112 141 167 185 194 194 195 200 195 205 211 213 213 205 209 209 209 213 220 227 247
51 55 57 56 58 58 60 63 62 60 61 63 60 65 63 59 67 87 76 59 75 121 107 129 171 189 189 192 191 195 205 210 215 222 215 205 209 213 219 228 229 235 239
53 55 54 57 59 57 56 57 59 60 59 61 61 59 56 59 76 99 81 57 87 113 102 95 141 171 187 191 193 200 205 212 220 219 211 209 213 219 231 234 236 243 249
53 56 57 58 58 58 58 55 59 60 60 58 58 55 56 57 70 84 74 73 57 68 106 121 153 165 177 189 186 190 197 203 200 206 208 209 211 217 229 232 239 241 254
53 56 57 58 61 61 62 58 60 60 59 59 57 60 61 63 73 77 71 65 36 21 205 196 176 176 167 177 180 188 196 195 200 200 206 211 208 216 226 234 237 248 254
55 56 58 60 62 60 59 60 59 56 54 56 58 60 63 67 70 63 72 83 45 11 168 182 168 175 172 174 181 195 201 198 192 194 209 212 213 220 232 239 241 248 254
60 60 60 61 61 59 61 61 55 51 52 54 52 55 57 64 65 59 72 77 64 75 121 161 167 167 170 173 181 198 201 199 192 199 211 216 218 224 234 249 253 253 256
61 61 62 59 58 55 55 59 55 54 56 58 57 60 59 58 60 61 61 60 71 80 84 112 145 160 173 176 186 199 202 200 201 209 212 221 224 221 230 243 257 253 250
58 58 58 59 59 55 50 47 51 55 58 62 60 58 54 52 53 56 59 63 72 83 92 109 116 141 160 171 186 193 198 204 207 210 216 226 230 229 238 248 252 255 256
55 54 55 58 55 53 48 47 51 56 60 61 60 57 52 52 50 45 50 62 70 74 90 105 117 138 155 167 188 204 221 212 209 214 221 226 227 234 243 254 265 265 275
53 53 54 52 48 46 46 42 43 47 52 54 55 53 47 46 49 47 47 46 55 62 68 80 101 153 212 224 235 230 227 221 223 226 224 232 242 246 254 262 268 268 278
42 46 51 47 40 39 38 37 35 38 42 47 53 47 39 35 36 36 33 38 39 36 35 51 0 311 297 269 253 246 240 236 240 238 238 240 245 250 261 265 267 271 279
34 41 46 42 36 34 31 30 29 32 35 38 43 42 32 26 25 20 17 18 21 12 350 339 341 311 296 270 263 255 248 249 252 245 245 249 255 261 267 272 270 269 273
29 32 36 37 31 26 24 24 23 24 26 31 37 36 24 17 8 3 356 345 344 341 338 331 329 320 296 277 271 272 271 271 268 261 259 260 267 272 274 273 273 272 272
21 23 24 25 21 15 14 13 12 14 16 19 20 20 12 1 352 349 342 348 342 332 319 315 317 320 306 293 283 279 275 274 270 268 269 269 270 275 277 275 274 275 275
10 9 10 9 10 2 358 360 0 358 358 358 354 350 349 344 339 332 329 330 331 329 322 311 302 308 295 283 275 275 274 271 272 270 270 271 269 273 278 282 282 282 281
355 355 358 358 359 355 352 348 345 345 344 340 337 336 336 335 333 328 325 327 324 326 329 322 310 305 297 291 283 274 272 271 272 272 270 270 271 274 279 284 285 282 280
343 345 348 348 342 339 338 337 335 331 330 327 325 328 325 324 324 322 322 324 327 324 320 314 308 307 299 296 291 281 278 278 275 280 279 278 277 278 280 282 284 284 283
337 339 340 335 333 331 329 326 320 316 313 313 311 311 312 312 309 310 313 314 314 312 307 303 302 303 297 290 287 286 284 283 284 284 282 280 281 279 280 282 282 282 282
327 329 328 330 328 323 321 321 317 310 307 304 299 302 305 303 302 302 304 306 305 305 305 302 297 298 298 299 293 290 287 286 285 285 283 281 281 280 281 283 284 284 283
Height
5860 5859 5857 5855 5854 5853 5854 5855 5856 5857 5858 5859 5859 5860 5861 5861 5861 5862 5862 5863 5864 5865 5866 5867 5867 5868 5868 5869 5870 5871 5873 5874 5875 5875 5876 5877 5878 5879 5880 5881 5882 5882 5882
5861 5859 5857 5854 5852 5852 5853 5855 5856 5857 5857 5858 5859 5859 5860 5860 5861 5861 5862 5862 5863 5864 5865 5865 5866 5866 5867 5868 5869 5870 5871 5873 5874 5874 5876 5877 5878 5879 5880 5880 5881 5882 5882
5861 5859 5857 5854 5851 5851 5852 5854 5856 5856 5857 5857 5858 5858 5859 5860 5861 5861 5862 5862 5863 5863 5863 5864 5864 5865 5866 5867 5868 5869 5870 5871 5872 5873 5874 5876 5877 5878 5879 5880 5880 5881 5882
5862 5860 5858 5856 5854 5853 5854 5855 5856 5856 5856 5856 5857 5857 5858 5859 5860 5861 5861 5862 5862 5862 5862 5863 5863 5863 5864 5866 5867 5868 5869 5871 5872 5872 5874 5875 5876 5877 5878 5879 5880 5880 5881
5863 5861 5860 5858 5857 5856 5856 5856 5856 5856 5856 5856 5855 5855 5856 5857 5859 5860 5860 5861 5861 5861 5861 5861 5862 5862 5863 5864 5866 5867 5868 5870 5871 5872 5873 5874 5876 5877 5878 5878 5879 5880 5881
5864 5863 5861 5860 5859 5858 5857 5857 5857 5857 5857 5856 5856 5855 5855 5856 5858 5859 5860 5860 5860 5860 5860 5860 5860 5861 5862 5864 5865 5866 5867 5869 5871 5872 5873 5874 5875 5876 5877 5878 5879 5880 5880
5865 5864 5862 5861 5860 5860 5859 5859 5858 5858 5858 5857 5857 5856 5856 5856 5858 5858 5859 5859 5859 5859 5859 5859 5859 5860 5861 5863 5864 5865 5867 5869 5871 5872 5873 5874 5875 5876 5877 5877 5878 5879 5880
5866 5865 5864 5863 5862 5862 5861 5860 5860 5859 5859 5859 5858 5857 5857 5857 5857 5858 5858 5859 5858 5858 5858 5858 5858 5859 5860 5862 5864 5865 5867 5869 5870 5871 5872 5874 5875 5876 5876 5877 5878 5879 5879
5867 5866 5866 5865 5864 5863 5862 5862 5861 5861 5861 5860 5859 5858 5856 5854 5855 5856 5858 5858 5858 5857 5857 5857 5857 5858 5860 5862 5863 5865 5866 5868 5870 5871 5872 5873 5874 5875 5876 5877 5877 5878 5878
5869 5868 5867 5866 5865 5865 5864 5864 5863 5862 5862 5861 5860 5858 5856 5853 5853 5855 5857 5858 5858 5857 5857 5857 5858 5858 5859 5861 5863 5865 5866 5868 5869 5871 5872 5873 5874 5875 5876 5876 5877 5877 5877
5870 5869 5869 5868 5868 5867 5866 5865 5864 5864 5863 5862 5861 5860 5858 5856 5855 5857 5857 5858 5857 5856 5856 5857 5857 5858 5860 5861 5863 5865 5866 5868 5869 5871 5872 5873 5873 5874 5875 5875 5876 5876 5876
5872 5871 5870 5870 5869 5869 5868 5867 5866 5865 5865 5864 5863 5863 5861 5860 5859 5859 5859 5858 5858 5856 5854 5855 5857 5859 5860 5862 5863 5864 5866 5868 5869 5870 5871 5872 5873 5873 5874 5874 5875 5875 5875
5873 5872 5872 5871 5871 5871 5870 5869 5868 5868 5867 5866 5866 5865 5864 5863 5862 5861 5861 5860 5858 5856 5853 5854 5857 5859 5861 5862 5863 5864 5865 5867 5868 5870 5871 5871 5872 5873 5874 5874 5874 5874 5874
5875 5874 5874 5873 5873 5872 5872 5871 5870 5869 5869 5868 5867 5866 5866 5865 5864 5863 5862 5861 5860 5858 5857 5857 5859 5860 5861 5862 5863 5864 5865 5867 5868 5869 5870 5871 5872 5872 5873 5873 5873 5873 5872
5877 5877 5876 5875 5874 5874 5873 5872 5872 5871 5870 5870 5869 5868 5867 5867 5866 5865 5864 5863 5862 5861 5860 5860 5861 5862 5862 5863 5863 5864 5865 5866 5867 5868 5869 5870 5871 5871 5872 5872 5872 5872 5872
5879 5878 5877 5877 5876 5875 5874 5873 5872 5872 5871 5871 5870 5869 5869 5868 5867 5866 5865 5864 5864 5863 5862 5862 5863 5863 5863 5864 5864 5864 5865 5866 5867 5868 5869 5869 5870 5870 5871 5871 5871 5871 5871
5880 5879 5879 5878 5877 5876 5876 5875 5874 5873 5872 5871 5871 5870 5870 5869 5868 5867 5866 5866 5865 5864 5864 5864 5864 5864 5864 5864 5864 5864 5865 5865 5866 5867 5868 5868 5869 5869 5870 5870 5870 5870 5870
5882 5881 5880 5879 5879 5878 5877 5876 5875 5874 5873 5872 5872 5871 5870 5870 5869 5868 5867 5866 5866 5865 5865 5865 5864 5864 5864 5864 5864 5864 5864 5865 5865 5866 5866 5867 5868 5868 5869 5868 5869 5868 5868
5883 5881 5881 5880 5879 5879 5878 5877 5876 5875 5874 5873 5873 5872 5871 5870 5869 5869 5868 5867 5866 5866 5865 5865 5864 5864 5864 5863 5863 5863 5863 5864 5864 5865 5865 5866 5866 5867 5867 5867 5867 5866 5866
5884 5883 5882 5881 5880 5879 5878 5878 5877 5876 5875 5874 5873 5872 5871 5870 5869 5869 5868 5867 5866 5866 5865 5865 5864 5864 5863 5863 5863 5863 5863 5863 5864 5864 5864 5865 5865 5865 5865 5865 5865 5864 5864
5885 5883 5882 5881 5880 5880 5879 5878 5877 5876 5875 5874 5873 5872 5871 5871 5870 5869 5868 5867 5866 5866 5865 5864 5863 5863 5863 5862 5862 5862 5862 5862 5863 5863 5863 5863 5864 5864 5863 5863 5863 5863 5862
5885 5884 5883 5881 5880 5880 5879 5878 5877 5876 5875 5874 5873 5872 5871 5871 5870 5869 5868 5867 5866 5865 5864 5864 5863 5862 5861 5861 5861 5861 5861 5862 5861 5861 5861 5861 5861 5861 5861 5861 5861 5860 5860
5885 5884 5883 5881 5880 5879 5879 5878 5877 5876 5875 5874 5873 5872 5871 5870 5869 5868 5867 5866 5865 5864 5863 5863 5862 5862 5861 5860 5860 5860 5860 5859 5859 5859 5859 5859 5859 5859 5858 5858 5858 5857 5857
5884 5883 5882 5881 5880 5879 5878 5877 5876 5875 5874 5873 5872 5871 5870 5869 5868 5867 5866 5865 5864 5863 5862 5861 5861 5860 5859 5859 5858 5858 5858 5858 5857 5857 5857 5856 5856 5856 5855 5855 5855 5854 5854
5884 5883 5881 5880 5879 5878 5877 5876 5875 5874 5873 5872 5871 5870 5869 5868 5867 5866 5865 5864 5863 5862 5861 5860 5859 5858 5857 5857 5856 5856 5856 5855 5855 5855 5854 5854 5853 5852 5852 5851 5851 5850 5850
5883 5882 5880 5879 5878 5877 5876 5875 5874 5873 5872 5870 5869 5868 5867 5866 5865 5864 5863 5862 5861 5860 5859 5858 5857 5856 5855 5854 5854 5853 5853 5853 5852 5852 5851 5850 5850 5849 5848 5847 5847 5846 5846